Location: Dumpton Point
(51.3500°N, 1.4433°E)
Time: 06:45:54
(UTC+00:00)

Envisat - Pass Details

Date: 07 December 2021
Orbit: 764 x 766 km, 98.2° (Epoch: 17 January)

Event Time Altitude Azimuth Distance (km) Brightness Sun altitude
Rises 06:57:30 0° 3° (N) 3,247 6.0 -7.1°
Reaches altitude 10° 07:00:41 10° 342° (NNW) 2,316 5.1 -6.6°
Maximum altitude 07:03:37 16° 307° (NW) 1,947 4.5 -6.2°
Drops below altitude 10° 07:06:32 10° 272° (W) 2,307 4.9 -5.8°
Sets 07:09:42 0° 251° (WSW) 3,228 5.8 -5.4°
